Hourly Weather Yulara

Today, 8 August, Saturday

Time Temperature Precipitation Wind Pressure Humidity
00:00 +9°C° 0 mm 1 mps 719 mmHg 60%
01:00 +9°C° 0 mm 1 mps 719 mmHg 61%
02:00 +7°C° 0 mm 2 mps 719 mmHg 62%
03:00 +7°C° 0 mm 2 mps 719 mmHg 65%
04:00 +7°C° 0 mm 2 mps 719 mmHg 68%
05:00 +7°C° 0 mm 2 mps 720 mmHg 70%
06:00 +7°C° 0 mm 2 mps 720 mmHg 73%
07:00 +8°C° 0 mm 2 mps 720 mmHg 68%
08:00 +9°C° 0 mm 2 mps 721 mmHg 62%
09:00 +12°C° 0 mm 2 mps 721 mmHg 57%
10:00 +13°C° 0 mm 2 mps 721 mmHg 50%
11:00 +14°C° 0 mm 2 mps 720 mmHg 44%
12:00 +16°C° 0 mm 1 mps 720 mmHg 38%
13:00 +16°C° 0 mm 2 mps 720 mmHg 34%
14:00 +17°C° 0 mm 2 mps 719 mmHg 31%
15:00 +18°C° 0 mm 2 mps 718 mmHg 27%
16:00 +17°C° 0 mm 2 mps 718 mmHg 29%
17:00 +16°C° 0 mm 2 mps 718 mmHg 31%
18:00 +15°C° 0 mm 2 mps 718 mmHg 33%
19:00 +14°C° 0 mm 3 mps 719 mmHg 36%
20:00 +13°C° 0 mm 3 mps 719 mmHg 39%
21:00 +12°C° 0 mm 4 mps 720 mmHg 42%
22:00 +11°C° 0 mm 4 mps 720 mmHg 44%
23:00 +11°C° 0 mm 4 mps 720 mmHg 46%

Tomorrow, 9 August, Sunday

Time Temperature Precipitation Wind Pressure Humidity
00:00 +10°C° 0 mm 4 mps 720 mmHg 48%
01:00 +8°C° 0 mm 4 mps 720 mmHg 49%
02:00 +9°C° 0 mm 3 mps 720 mmHg 50%
03:00 +8°C° 0 mm 3 mps 720 mmHg 51%
04:00 +8°C° 0 mm 3 mps 720 mmHg 53%
05:00 +7°C° 0 mm 3 mps 720 mmHg 54%
06:00 +7°C° 0 mm 3 mps 720 mmHg 55%
07:00 +8°C° 0 mm 3 mps 720 mmHg 51%
08:00 +10°C° 0 mm 3 mps 721 mmHg 48%
09:00 +11°C° 0 mm 3 mps 721 mmHg 45%
10:00 +13°C° 0 mm 3 mps 721 mmHg 40%
11:00 +14°C° 0 mm 3 mps 720 mmHg 36%
12:00 +17°C° 0 mm 2 mps 720 mmHg 31%
13:00 +17°C° 0 mm 2 mps 719 mmHg 29%
14:00 +19°C° 0 mm 1 mps 718 mmHg 26%
15:00 +20°C° 0 mm 1 mps 718 mmHg 23%
16:00 +19°C° 0 mm 1 mps 718 mmHg 25%
17:00 +17°C° 0 mm 2 mps 717 mmHg 27%
18:00 +16°C° 0 mm 2 mps 717 mmHg 28%
19:00 +16°C° 0 mm 2 mps 718 mmHg 30%
20:00 +14°C° 0 mm 3 mps 718 mmHg 31%
21:00 +14°C° 0 mm 4 mps 718 mmHg 32%
22:00 +13°C° 0 mm 4 mps 718 mmHg 34%
23:00 +12°C° 0 mm 4 mps 718 mmHg 36%

Day after tomorrow, 10 August, Monday

Time Temperature Precipitation Wind Pressure Humidity
00:00 +12°C° 0 mm 4 mps 718 mmHg 38%
01:00 +11°C° 0 mm 4 mps 717 mmHg 40%
02:00 +11°C° 0 mm 4 mps 717 mmHg 42%
03:00 +10°C° 0 mm 4 mps 717 mmHg 44%
04:00 +10°C° 0 mm 4 mps 717 mmHg 45%
05:00 +10°C° 0 mm 4 mps 717 mmHg 46%
06:00 +8°C° 0 mm 4 mps 717 mmHg 48%
07:00 +10°C° 0 mm 5 mps 717 mmHg 42%
08:00 +13°C° 0 mm 5 mps 717 mmHg 35%
09:00 +15°C° 0 mm 5 mps 717 mmHg 29%
10:00 +19°C° 0 mm 6 mps 717 mmHg 25%
11:00 +22°C° 0 mm 7 mps 716 mmHg 21%
12:00 +26°C° 0 mm 9 mps 716 mmHg 16%
13:00 +27°C° 0 mm 9 mps 715 mmHg 16%
14:00 +28°C° 0 mm 10 mps 715 mmHg 15%
15:00 +29°C° 0 mm 11 mps 714 mmHg 15%
16:00 +28°C° 0 mm 10 mps 713 mmHg 17%
17:00 +27°C° 0 mm 8 mps 713 mmHg 18%
18:00 +24°C° 0 mm 7 mps 713 mmHg 20%
19:00 +23°C° 0 mm 7 mps 713 mmHg 21%
20:00 +22°C° 0 mm 7 mps 713 mmHg 23%
21:00 +21°C° 0 mm 7 mps 713 mmHg 25%
22:00 +21°C° 0.1 mm 7 mps 714 mmHg 33%
23:00 +20°C° 0.1 mm 6 mps 714 mmHg 41%

11 August, Tuesday

Time Temperature Precipitation Wind Pressure Humidity
00:00 +20°C° 0.1 mm 6 mps 714 mmHg 49%
01:00 +19°C° 1.7 mm 6 mps 713 mmHg 61%
02:00 +17°C° 1.7 mm 6 mps 713 mmHg 74%
03:00 +16°C° 1.7 mm 6 mps 713 mmHg 86%
04:00 +16°C° 0.5 mm 5 mps 713 mmHg 84%
05:00 +17°C° 0.5 mm 4 mps 714 mmHg 83%
06:00 +16°C° 0.5 mm 3 mps 714 mmHg 81%
07:00 +17°C° 0.2 mm 3 mps 714 mmHg 79%
08:00 +17°C° 0.2 mm 2 mps 715 mmHg 76%
09:00 +17°C° 0.2 mm 2 mps 715 mmHg 74%
10:00 +18°C° 0 mm 3 mps 715 mmHg 66%
11:00 +20°C° 0 mm 4 mps 715 mmHg 59%
12:00 +21°C° 0 mm 6 mps 715 mmHg 51%
13:00 +22°C° 0 mm 7 mps 714 mmHg 47%
14:00 +23°C° 0 mm 8 mps 714 mmHg 43%
15:00 +23°C° 0 mm 9 mps 713 mmHg 39%
16:00 +23°C° 0 mm 8 mps 713 mmHg 38%
17:00 +22°C° 0 mm 7 mps 713 mmHg 38%
18:00 +21°C° 0 mm 6 mps 713 mmHg 37%
19:00 +20°C° 0 mm 5 mps 714 mmHg 39%
20:00 +20°C° 0 mm 5 mps 714 mmHg 41%
21:00 +19°C° 0 mm 4 mps 715 mmHg 43%
22:00 +18°C° 0 mm 4 mps 715 mmHg 44%
23:00 +17°C° 0 mm 3 mps 715 mmHg 46%

12 August, Wednesday

Time Temperature Precipitation Wind Pressure Humidity
00:00 +17°C° 0 mm 3 mps 715 mmHg 47%
01:00 +16°C° 0 mm 3 mps 714 mmHg 48%
02:00 +15°C° 0 mm 2 mps 714 mmHg 49%
03:00 +15°C° 0 mm 2 mps 714 mmHg 50%
04:00 +14°C° 0 mm 2 mps 714 mmHg 53%
05:00 +14°C° 0 mm 2 mps 714 mmHg 55%
06:00 +13°C° 0 mm 1 mps 714 mmHg 57%
07:00 +15°C° 0 mm 2 mps 715 mmHg 52%
08:00 +17°C° 0 mm 2 mps 715 mmHg 47%
09:00 +18°C° 0 mm 2 mps 716 mmHg 42%
10:00 +20°C° 0 mm 3 mps 716 mmHg 38%
11:00 +21°C° 0 mm 4 mps 715 mmHg 34%
12:00 +23°C° 0 mm 5 mps 715 mmHg 30%
13:00 +24°C° 0 mm 6 mps 715 mmHg 28%
14:00 +24°C° 0 mm 7 mps 714 mmHg 26%
15:00 +26°C° 0 mm 7 mps 713 mmHg 24%
16:00 +24°C° 0 mm 6 mps 714 mmHg 25%
17:00 +23°C° 0 mm 6 mps 714 mmHg 27%
18:00 +21°C° 0 mm 5 mps 714 mmHg 28%
19:00 +20°C° 0 mm 5 mps 714 mmHg 31%
20:00 +19°C° 0 mm 4 mps 715 mmHg 33%
21:00 +19°C° 0 mm 4 mps 715 mmHg 35%
22:00 +18°C° 0 mm 4 mps 715 mmHg 37%
23:00 +17°C° 0 mm 3 mps 715 mmHg 40%

13 August, Thursday

Time Temperature Precipitation Wind Pressure Humidity
00:00 +16°C° 0 mm 3 mps 715 mmHg 43%
01:00 +16°C° 0 mm 3 mps 715 mmHg 45%
02:00 +15°C° 0 mm 2 mps 715 mmHg 48%
03:00 +15°C° 0 mm 2 mps 714 mmHg 50%
04:00 +14°C° 0 mm 2 mps 715 mmHg 52%
05:00 +14°C° 0 mm 2 mps 715 mmHg 53%
06:00 +13°C° 0 mm 1 mps 715 mmHg 55%
07:00 +14°C° 0 mm 1 mps 716 mmHg 51%
08:00 +16°C° 0 mm 1 mps 716 mmHg 47%
09:00 +18°C° 0 mm 1 mps 717 mmHg 42%
10:00 +20°C° 0 mm 1 mps 717 mmHg 39%
11:00 +21°C° 0 mm 1 mps 716 mmHg 36%
12:00 +22°C° 0 mm 1 mps 716 mmHg 32%
13:00 +23°C° 0 mm 2 mps 716 mmHg 30%
14:00 +23°C° 0 mm 4 mps 715 mmHg 28%
15:00 +25°C° 0 mm 5 mps 714 mmHg 25%
16:00 +23°C° 0 mm 4 mps 715 mmHg 26%
17:00 +22°C° 0 mm 4 mps 715 mmHg 27%
18:00 +21°C° 0 mm 3 mps 715 mmHg 28%
19:00 +20°C° 0 mm 3 mps 716 mmHg 30%
20:00 +19°C° 0 mm 4 mps 716 mmHg 31%
21:00 +18°C° 0 mm 4 mps 717 mmHg 33%
22:00 +17°C° 0 mm 4 mps 717 mmHg 36%
23:00 +15°C° 0 mm 4 mps 717 mmHg 38%
Show more